Regional Weather Roundup
Issued by NWS

Home | Current Version | Previous Version | Graphics & Text | Print | Product List | Glossary On
Versions: 1 2 3 4 5 6 7 8 9 10 11 12 13 14 15 16 17 18 19 20 21 22 23 24 25 26 27
000
ASUS45 KCYS 270510
RWRWY

WYOMING REGIONAL WEATHER ROUNDUP
NATIONAL WEATHER SERVICE CHEYENNE WY
1100 PM MDT MON SEP 26 2016

NOTE:  "FAIR" INDICATES FEW OR NO CLOUDS BELOW 12,000 FEET
WITH NO SIGNIFICANT WEATHER AND/OR OBSTRUCTIONS TO VISIBILITY.

WYZ001-270600-
YELLOWSTONE NATIONAL PARK

CITY           SKY/WX    TMP DP  RH WIND       PRES   REMARKS
LK YELLOWSTONE   N/A     36  35  96 CALM      30.47S
W YELLOWSTONE  NOT AVBL

$$
WYZ002>013-054>058-071-098>099-270600-
NORTHERN WYOMING

CITY           SKY/WX    TMP DP  RH WIND       PRES   REMARKS
JACKSON        FAIR      48  41  76 N5        30.38F
CODY           FAIR      54  46  76 CALM      30.27F
GREYBULL       FAIR      54  48  80 E5        30.22F
WORLAND        FAIR      50  46  86 CALM      30.23F
SHERIDAN       FAIR      48  44  86 S5        30.17F
BUFFALO        FAIR      54  40  59 W8        30.24F
GILLETTE       FAIR      49  45  86 S10       30.21F
HULETT         FAIR      48  43  81 SW8       30.21F
NEWCASTLE      FAIR      46  39  76 E3        30.24F

$$
WYZ014>020-022>026-101>103-270600-
CENTRAL WYOMING

CITY           SKY/WX    TMP DP  RH WIND       PRES   REMARKS
BIG PINEY      FAIR      49  38  65 CALM      30.41S
PINEDALE       FAIR      46  36  66 CALM      30.43S
DUBOIS         FAIR      46  37  71 NW9       30.42S
LANDER         FAIR      54  36  50 W10       30.31F
RIVERTON       FAIR      53  42  66 CALM      30.32F
CASPER         FAIR      47  42  83 W7        30.30F
DOUGLAS        FAIR      48  41  76 CALM      30.29F

$$
WYZ021-027>030-104>119-270600-
SOUTHERN WYOMING

CITY           SKY/WX    TMP DP  RH WIND       PRES   REMARKS
EVANSTON       FAIR      53  35  50 S5        30.40S
FORT BRIDGER   FAIR      55  37  50 S7        30.42F
ROCK SPRINGS   FAIR      54  39  57 S5        30.39S
DIXON          FAIR      48  38  68 NE5       30.41S
RAWLINS        FAIR      44  37  76 N3        30.39F
SARATOGA       FAIR      45  36  70 N3        30.42S
LARAMIE        FAIR      47  37  68 S6        30.41F
CHEYENNE       FAIR      48  37  65 W9        30.36F
TORRINGTON     FAIR      53  43  68 W3        30.26S
PINE BLUFFS    FAIR      45  36  70 W10       30.33S

$$




USA.gov is the U.S. government's official web portal to all federal, state and local government web resources and services.